Time,TemperatureF,DewpointF,PressureIn,WindDirection,WindDirectionDegrees,WindSpeedMPH,WindSpeedGustMPH,Humidity,HourlyPrecipIn,Conditions,Clouds,dailyrainin,SoftwareType,DateUTC
2013-11-18 00:01:00,56.2,53.9,29.62,SSW,194,1.0,9.0,92,0.02,,---,0.00,VWS V14.01,2013-11-18 05:01:00,
2013-11-18 00:02:00,56.3,54.0,29.62,SSW,194,0.0,9.0,92,0.02,,---,0.00,VWS V14.01,2013-11-18 05:02:00,
2013-11-18 00:07:00,56.3,54.0,29.61,SSE,161,3.0,7.0,92,0.02,,---,0.00,VWS V14.01,2013-11-18 05:07:00,
2013-11-18 00:12:00,56.4,53.8,29.62,SSW,205,1.0,13.0,91,0.02,,---,0.00,VWS V14.01,2013-11-18 05:12:00,
2013-11-18 00:17:00,56.4,53.5,29.63,SSE,155,5.0,10.0,90,0.03,,---,0.01,VWS V14.01,2013-11-18 05:17:00,
2013-11-18 00:22:00,56.3,53.1,29.63,WNW,286,2.0,9.0,89,0.02,,---,0.01,VWS V14.01,2013-11-18 05:22:00,
2013-11-18 00:27:00,56.2,52.7,29.64,West,266,5.0,12.0,88,0.02,,---,0.01,VWS V14.01,2013-11-18 05:27:00,
2013-11-18 00:32:00,55.9,51.8,29.64,NW,317,2.0,13.0,86,0.02,,---,0.01,VWS V14.01,2013-11-18 05:32:00,
2013-11-18 00:37:00,55.8,50.7,29.65,SSW,207,3.0,7.0,83,0.02,,---,0.01,VWS V14.01,2013-11-18 05:37:00,
2013-11-18 00:42:00,55.6,49.5,29.65,WSW,249,10.0,18.0,80,0.02,,---,0.01,VWS V14.01,2013-11-18 05:42:00,
2013-11-18 00:47:00,55.5,48.1,29.66,West,267,0.0,7.0,76,0.02,,---,0.01,VWS V14.01,2013-11-18 05:47:00,
2013-11-18 00:52:00,55.3,46.1,29.67,WNW,287,11.0,11.0,71,0.02,,---,0.01,VWS V14.01,2013-11-18 05:52:00,
2013-11-18 00:57:00,55.2,43.7,29.67,West,279,5.0,16.0,65,0.01,,---,0.01,VWS V14.01,2013-11-18 05:57:00,
2013-11-18 01:02:00,55.2,44.5,29.67,WSW,245,0.0,5.0,67,0.01,,---,0.01,VWS V14.01,2013-11-18 06:02:00,
2013-11-18 01:07:00,55.2,45.2,29.67,WNW,292,2.0,4.0,69,0.02,,---,0.02,VWS V14.01,2013-11-18 06:07:00,
2013-11-18 01:12:00,55.0,45.0,29.68,SW,215,0.0,11.0,69,0.02,,---,0.02,VWS V14.01,2013-11-18 06:12:00,
2013-11-18 01:17:00,54.7,44.7,29.68,SSW,210,1.0,8.0,69,0.02,,---,0.02,VWS V14.01,2013-11-18 06:17:00,
2013-11-18 01:22:00,54.4,44.1,29.68,WSW,239,1.0,10.0,68,0.01,,---,0.02,VWS V14.01,2013-11-18 06:22:00,
2013-11-18 01:27:00,54.1,43.4,29.68,SSW,205,0.0,12.0,67,0.01,,---,0.02,VWS V14.01,2013-11-18 06:27:00,
2013-11-18 01:32:00,53.9,42.8,29.68,WNW,292,0.0,6.0,66,0.01,,---,0.02,VWS V14.01,2013-11-18 06:32:00,
2013-11-18 01:37:00,53.7,43.0,29.69,West,281,1.0,5.0,67,0.01,,---,0.02,VWS V14.01,2013-11-18 06:37:00,
2013-11-18 01:42:00,53.5,42.8,29.69,SW,221,1.0,8.0,67,0.01,,---,0.02,VWS V14.01,2013-11-18 06:42:00,
2013-11-18 01:47:00,53.3,42.2,29.69,SW,234,0.0,4.0,66,0.01,,---,0.02,VWS V14.01,2013-11-18 06:47:00,
2013-11-18 01:52:00,53.1,42.8,29.70,South,188,1.0,3.0,68,0.02,,---,0.03,VWS V14.01,2013-11-18 06:52:00,
2013-11-18 01:57:00,52.8,42.5,29.70,NNE,22,1.0,6.0,68,0.02,,---,0.03,VWS V14.01,2013-11-18 06:57:00,
2013-11-18 02:02:00,52.5,42.3,29.70,SSE,153,0.0,9.0,68,0.02,,---,0.03,VWS V14.01,2013-11-18 07:02:00,
2013-11-18 02:07:00,52.2,42.0,29.71,South,186,4.0,4.0,68,0.02,,---,0.03,VWS V14.01,2013-11-18 07:07:00,
2013-11-18 02:12:00,51.9,42.1,29.70,South,174,0.0,7.0,69,0.01,,---,0.03,VWS V14.01,2013-11-18 07:12:00,
2013-11-18 02:17:00,51.8,41.6,29.71,West,275,1.0,9.0,68,0.01,,---,0.03,VWS V14.01,2013-11-18 07:17:00,
2013-11-18 02:22:00,51.6,41.8,29.71,WNW,301,0.0,2.0,69,0.01,,---,0.03,VWS V14.01,2013-11-18 07:22:00,
2013-11-18 02:27:00,51.4,41.2,29.72,SW,221,2.0,7.0,68,0.01,,---,0.03,VWS V14.01,2013-11-18 07:27:00,
2013-11-18 02:32:00,51.4,41.2,29.72,SSW,207,0.0,12.0,68,0.01,,---,0.03,VWS V14.01,2013-11-18 07:32:00,
2013-11-18 02:37:00,51.3,41.1,29.72,SW,236,6.0,13.0,68,0.01,,---,0.03,VWS V14.01,2013-11-18 07:37:00,
2013-11-18 02:42:00,51.3,41.1,29.72,West,270,0.0,9.0,68,0.01,,---,0.03,VWS V14.01,2013-11-18 07:42:00,
2013-11-18 02:47:00,51.3,41.1,29.72,WNW,298,1.0,11.0,68,0.01,,---,0.03,VWS V14.01,2013-11-18 07:47:00,
2013-11-18 02:52:00,51.2,41.4,29.72,West,264,1.0,5.0,69,0.01,,---,0.03,VWS V14.01,2013-11-18 07:52:00,
2013-11-18 02:57:00,51.2,41.4,29.72,SW,235,3.0,7.0,69,0.00,,---,0.03,VWS V14.01,2013-11-18 07:57:00,
2013-11-18 03:02:00,51.0,40.8,29.72,WSW,258,0.0,9.0,68,0.00,,---,0.03,VWS V14.01,2013-11-18 08:02:00,
2013-11-18 03:08:00,50.9,41.1,29.72,WSW,238,0.0,4.0,69,0.00,,---,0.03,VWS V14.01,2013-11-18 08:08:00,
2013-11-18 03:12:00,50.7,40.9,29.72,North,5,0.0,4.0,69,0.00,,---,0.03,VWS V14.01,2013-11-18 08:12:00,
2013-11-18 03:18:00,50.5,40.7,29.72,WNW,303,3.0,11.0,69,0.01,,---,0.04,VWS V14.01,2013-11-18 08:18:00,
2013-11-18 03:23:00,50.3,40.9,29.72,WNW,303,4.0,4.0,70,0.01,,---,0.04,VWS V14.01,2013-11-18 08:23:00,
2013-11-18 03:28:00,50.2,41.2,29.72,WSW,251,0.0,4.0,71,0.01,,---,0.04,VWS V14.01,2013-11-18 08:28:00,
2013-11-18 03:33:00,50.1,41.1,29.72,NW,317,0.0,3.0,71,0.01,,---,0.04,VWS V14.01,2013-11-18 08:33:00,
2013-11-18 03:38:00,49.9,40.9,29.72,NE,55,0.0,4.0,71,0.01,,---,0.04,VWS V14.01,2013-11-18 08:38:00,
2013-11-18 03:43:00,49.7,40.7,29.72,West,272,0.0,2.0,71,0.01,,---,0.04,VWS V14.01,2013-11-18 08:43:00,
2013-11-18 03:48:00,49.6,41.0,29.73,SSW,198,0.0,3.0,72,0.01,,---,0.04,VWS V14.01,2013-11-18 08:48:00,
2013-11-18 03:53:00,49.4,40.8,29.73,SSW,213,0.0,3.0,72,0.01,,---,0.04,VWS V14.01,2013-11-18 08:53:00,
2013-11-18 03:58:00,49.3,41.0,29.73,SSW,213,0.0,2.0,73,0.01,,---,0.04,VWS V14.01,2013-11-18 08:58:00,
2013-11-18 04:03:00,49.1,40.8,29.73,SW,215,1.0,2.0,73,0.01,,---,0.04,VWS V14.01,2013-11-18 09:03:00,
2013-11-18 04:08:00,48.9,40.6,29.73,West,260,0.0,3.0,73,0.01,,---,0.04,VWS V14.01,2013-11-18 09:08:00,
2013-11-18 04:13:00,48.7,40.5,29.73,West,278,0.0,1.0,73,0.01,,---,0.04,VWS V14.01,2013-11-18 09:13:00,
2013-11-18 04:18:00,48.5,40.6,29.73,West,269,0.0,4.0,74,0.01,,---,0.04,VWS V14.01,2013-11-18 09:18:00,
2013-11-18 04:23:00,48.3,40.4,29.73,WNW,292,0.0,3.0,74,0.00,,---,0.04,VWS V14.01,2013-11-18 09:23:00,
2013-11-18 04:28:00,48.1,40.2,29.74,NW,312,0.0,2.0,74,0.01,,---,0.05,VWS V14.01,2013-11-18 09:28:00,
2013-11-18 04:33:00,47.9,40.4,29.74,SSW,211,1.0,3.0,75,0.01,,---,0.05,VWS V14.01,2013-11-18 09:33:00,
2013-11-18 04:38:00,47.7,40.2,29.74,WNW,296,1.0,6.0,75,0.01,,---,0.05,VWS V14.01,2013-11-18 09:38:00,
2013-11-18 04:43:00,47.6,40.1,29.74,WNW,302,1.0,9.0,75,0.01,,---,0.05,VWS V14.01,2013-11-18 09:43:00,
2013-11-18 14:42:00,55.9,37.0,29.81,SW,224,3.0,16.0,49,0.00,,---,0.08,VWS V14.01,2013-11-18 19:42:00,
2013-11-18 14:43:00,55.9,37.0,29.81,West,269,5.0,16.0,49,0.00,,---,0.08,VWS V14.01,2013-11-18 19:43:00,
2013-11-18 14:48:00,55.7,36.3,29.81,NW,313,3.0,13.0,48,0.00,,---,0.08,VWS V14.01,2013-11-18 19:48:00,
2013-11-18 14:53:00,55.3,36.0,29.81,West,265,1.0,16.0,48,0.00,,---,0.08,VWS V14.01,2013-11-18 19:53:00,
2013-11-18 14:58:00,54.9,36.1,29.82,SSW,207,3.0,12.0,49,0.00,,---,0.08,VWS V14.01,2013-11-18 19:58:00,
2013-11-18 15:03:00,54.5,35.8,29.82,NNW,342,3.0,15.0,49,0.00,,---,0.08,VWS V14.01,2013-11-18 20:03:00,
2013-11-18 15:08:00,54.0,35.8,29.82,SW,233,5.0,13.0,50,0.00,,---,0.08,VWS V14.01,2013-11-18 20:08:00,
2013-11-18 15:13:00,53.6,35.4,29.82,WNW,282,4.0,14.0,50,0.00,,---,0.08,VWS V14.01,2013-11-18 20:13:00,
2013-11-18 15:18:00,53.5,35.8,29.82,SSE,163,10.0,10.0,51,0.00,,---,0.08,VWS V14.01,2013-11-18 20:18:00,
2013-11-18 15:23:00,53.1,35.5,29.82,SSW,209,0.0,12.0,51,0.00,,---,0.08,VWS V14.01,2013-11-18 20:23:00,
2013-11-18 15:28:00,52.8,35.2,29.83,NNW,333,5.0,16.0,51,0.00,,---,0.08,VWS V14.01,2013-11-18 20:28:00,
2013-11-18 15:33:00,52.4,34.8,29.83,West,269,5.0,14.0,51,0.00,,---,0.08,VWS V14.01,2013-11-18 20:33:00,
2013-11-18 15:38:00,52.1,35.0,29.83,WSW,242,0.0,14.0,52,0.00,,---,0.08,VWS V14.01,2013-11-18 20:38:00,
2013-11-18 15:43:00,51.9,34.8,29.84,SSW,194,2.0,16.0,52,0.00,,---,0.08,VWS V14.01,2013-11-18 20:43:00,
2013-11-18 15:48:00,51.8,34.8,29.84,WSW,252,0.0,17.0,52,0.00,,---,0.08,VWS V14.01,2013-11-18 20:48:00,
2013-11-18 15:53:00,51.7,34.7,29.84,SW,232,2.0,11.0,52,0.00,,---,0.08,VWS V14.01,2013-11-18 20:53:00,
2013-11-18 15:58:00,51.6,35.0,29.85,WSW,249,1.0,10.0,53,0.00,,---,0.08,VWS V14.01,2013-11-18 20:58:00,
2013-11-18 16:03:00,51.4,34.9,29.85,West,259,0.0,12.0,53,0.00,,---,0.08,VWS V14.01,2013-11-18 21:03:00,
2013-11-18 16:08:00,51.3,35.2,29.85,NW,304,0.0,10.0,54,0.00,,---,0.08,VWS V14.01,2013-11-18 21:08:00,
2013-11-18 16:13:00,51.2,35.1,29.85,SE,129,2.0,7.0,54,0.00,,---,0.08,VWS V14.01,2013-11-18 21:13:00,
2013-11-18 16:18:00,50.9,34.4,29.85,West,276,4.0,19.0,53,0.00,,---,0.08,VWS V14.01,2013-11-18 21:18:00,
2013-11-18 16:23:00,50.6,34.1,29.86,NW,317,5.0,13.0,53,0.00,,---,0.08,VWS V14.01,2013-11-18 21:23:00,
2013-11-18 16:28:00,50.4,33.9,29.86,West,273,2.0,6.0,53,0.00,,---,0.08,VWS V14.01,2013-11-18 21:28:00,
2013-11-18 16:33:00,50.1,33.2,29.86,NNW,333,3.0,10.0,52,0.00,,---,0.08,VWS V14.01,2013-11-18 21:33:00,
2013-11-18 16:38:00,49.9,33.5,29.87,SW,229,1.0,11.0,53,0.00,,---,0.08,VWS V14.01,2013-11-18 21:38:00,
2013-11-18 16:43:00,49.7,33.8,29.87,WNW,292,3.0,9.0,54,0.00,,---,0.08,VWS V14.01,2013-11-18 21:43:00,
2013-11-18 16:48:00,49.6,33.7,29.87,SSE,163,0.0,9.0,54,0.00,,---,0.08,VWS V14.01,2013-11-18 21:48:00,
2013-11-18 16:53:00,49.4,33.5,29.88,WNW,298,2.0,10.0,54,0.00,,---,0.08,VWS V14.01,2013-11-18 21:53:00,
2013-11-18 16:58:00,49.2,33.7,29.88,West,272,2.0,10.0,55,0.00,,---,0.08,VWS V14.01,2013-11-18 21:58:00,
2013-11-18 17:03:00,49.1,33.7,29.88,West,272,2.0,10.0,55,0.00,,---,0.08,VWS V14.01,2013-11-18 22:03:00,
2013-11-18 17:08:00,48.9,33.0,29.88,WNW,303,0.0,15.0,54,0.00,,---,0.08,VWS V14.01,2013-11-18 22:08:00,
2013-11-18 17:13:00,48.7,32.3,29.89,West,278,2.0,10.0,53,0.00,,---,0.08,VWS V14.01,2013-11-18 22:13:00,
2013-11-18 17:18:00,48.5,32.2,29.89,West,277,7.0,14.0,53,0.00,,---,0.08,VWS V14.01,2013-11-18 22:18:00,
2013-11-18 17:23:00,48.4,32.1,29.90,SSW,200,1.0,9.0,53,0.00,,---,0.08,VWS V14.01,2013-11-18 22:23:00,
2013-11-18 17:28:00,48.2,32.3,29.90,SW,220,2.0,7.0,54,0.00,,---,0.08,VWS V14.01,2013-11-18 22:28:00,
2013-11-18 17:33:00,48.0,32.2,29.90,South,171,0.0,11.0,54,0.00,,---,0.08,VWS V14.01,2013-11-18 22:33:00,
2013-11-18 17:38:00,47.8,32.4,29.90,West,281,3.0,10.0,55,0.00,,---,0.08,VWS V14.01,2013-11-18 22:38:00,
2013-11-18 17:43:00,47.7,32.3,29.90,WSW,242,2.0,10.0,55,0.00,,---,0.08,VWS V14.01,2013-11-18 22:43:00,
2013-11-18 17:48:00,47.6,32.7,29.91,SW,236,0.0,5.0,56,0.00,,---,0.08,VWS V14.01,2013-11-18 22:48:00,
2013-11-18 17:53:00,47.3,32.4,29.91,WSW,242,1.0,10.0,56,0.00,,---,0.08,VWS V14.01,2013-11-18 22:53:00,
2013-11-18 17:58:00,47.2,32.3,29.91,WSW,241,1.0,9.0,56,0.00,,---,0.08,VWS V14.01,2013-11-18 22:58:00,
2013-11-18 18:03:00,47.0,32.6,29.92,WSW,256,4.0,6.0,57,0.00,,---,0.08,VWS V14.01,2013-11-18 23:03:00,
2013-11-18 18:08:00,46.9,32.5,29.92,WNW,296,3.0,4.0,57,0.00,,---,0.08,VWS V14.01,2013-11-18 23:08:00,
2013-11-18 18:13:00,46.8,32.4,29.92,WSW,239,4.0,10.0,57,0.00,,---,0.08,VWS V14.01,2013-11-18 23:13:00,
2013-11-18 18:18:00,46.6,32.2,29.92,SW,236,4.0,9.0,57,0.00,,---,0.08,VWS V14.01,2013-11-18 23:18:00,
2013-11-18 18:23:00,46.4,32.0,29.93,NW,309,0.0,11.0,57,0.00,,---,0.08,VWS V14.01,2013-11-18 23:23:00,
2013-11-18 18:28:00,46.3,31.9,29.93,West,272,11.0,11.0,57,0.00,,---,0.08,VWS V14.01,2013-11-18 23:28:00,
2013-11-18 18:33:00,46.1,31.7,29.93,WSW,250,1.0,10.0,57,0.00,,---,0.08,VWS V14.01,2013-11-18 23:33:00,
2013-11-18 18:38:00,45.9,32.0,29.94,West,267,4.0,10.0,58,0.00,,---,0.08,VWS V14.01,2013-11-18 23:38:00,
2013-11-18 18:43:00,45.8,31.9,29.94,SSW,213,2.0,6.0,58,0.00,,---,0.08,VWS V14.01,2013-11-18 23:43:00,
2013-11-18 18:48:00,45.6,32.1,29.95,SSW,212,0.0,12.0,59,0.00,,---,0.08,VWS V14.01,2013-11-18 23:48:00,
2013-11-18 18:53:00,45.5,32.0,29.95,WNW,298,5.0,6.0,59,0.00,,---,0.08,VWS V14.01,2013-11-18 23:53:00,
2013-11-18 18:58:00,45.4,31.9,29.95,West,279,0.0,10.0,59,0.00,,---,0.08,VWS V14.01,2013-11-18 23:58:00,
2013-11-18 19:03:00,45.3,32.2,29.95,West,265,2.0,7.0,60,0.00,,---,0.08,VWS V14.01,2013-11-19 00:03:00,
2013-11-18 19:08:00,45.2,32.2,29.95,West,265,0.0,4.0,60,0.00,,---,0.08,VWS V14.01,2013-11-19 00:08:00,
2013-11-18 19:13:00,45.1,32.1,29.96,NW,314,0.0,4.0,60,0.00,,---,0.08,VWS V14.01,2013-11-19 00:13:00,
2013-11-18 19:18:00,44.9,32.3,29.96,WNW,288,3.0,5.0,61,0.00,,---,0.08,VWS V14.01,2013-11-19 00:18:00,
2013-11-18 19:23:00,44.8,32.2,29.96,SW,215,1.0,5.0,61,0.00,,---,0.08,VWS V14.01,2013-11-19 00:23:00,
2013-11-18 19:28:00,44.7,32.1,29.96,WSW,258,0.0,11.0,61,0.00,,---,0.08,VWS V14.01,2013-11-19 00:28:00,
2013-11-18 19:33:00,44.7,32.1,29.96,West,269,10.0,12.0,61,0.00,,---,0.08,VWS V14.01,2013-11-19 00:33:00,
2013-11-18 19:38:00,44.7,32.5,29.96,WNW,290,9.0,11.0,62,0.00,,---,0.08,VWS V14.01,2013-11-19 00:38:00,
2013-11-18 19:43:00,44.6,32.4,29.97,WSW,242,3.0,7.0,62,0.00,,---,0.08,VWS V14.01,2013-11-19 00:43:00,
2013-11-18 19:48:00,44.6,32.4,29.97,SW,214,3.0,10.0,62,0.00,,---,0.08,VWS V14.01,2013-11-19 00:48:00,
2013-11-18 19:53:00,44.6,32.4,29.97,West,281,0.0,7.0,62,0.00,,---,0.08,VWS V14.01,2013-11-19 00:53:00,
2013-11-18 19:58:00,44.5,32.7,29.97,West,279,0.0,4.0,63,0.00,,---,0.08,VWS V14.01,2013-11-19 00:58:00,
2013-11-18 20:03:00,44.5,32.7,29.98,WSW,254,9.0,10.0,63,0.00,,---,0.08,VWS V14.01,2013-11-19 01:03:00,
2013-11-18 20:08:00,44.4,32.6,29.98,WNW,289,3.0,14.0,63,0.00,,---,0.08,VWS V14.01,2013-11-19 01:08:00,
2013-11-18 20:13:00,44.3,32.9,29.98,WNW,288,0.0,7.0,64,0.00,,---,0.08,VWS V14.01,2013-11-19 01:13:00,
2013-11-18 20:18:00,44.2,32.8,29.99,SW,236,4.0,11.0,64,0.00,,---,0.08,VWS V14.01,2013-11-19 01:18:00,
2013-11-18 20:23:00,44.0,32.6,29.99,NW,318,1.0,7.0,64,0.00,,---,0.08,VWS V14.01,2013-11-19 01:23:00,
2013-11-18 20:28:00,43.8,32.4,29.99,West,272,1.0,11.0,64,0.00,,---,0.08,VWS V14.01,2013-11-19 01:28:00,
2013-11-18 20:33:00,43.7,32.0,29.99,West,277,2.0,9.0,63,0.00,,---,0.08,VWS V14.01,2013-11-19 01:33:00,
2013-11-18 20:38:00,43.6,31.9,29.99,West,271,5.0,15.0,63,0.00,,---,0.08,VWS V14.01,2013-11-19 01:38:00,
2013-11-18 20:43:00,43.5,31.8,29.99,SW,234,5.0,6.0,63,0.00,,---,0.08,VWS V14.01,2013-11-19 01:43:00,
2013-11-18 20:45:00,43.4,31.7,29.99,West,278,13.0,13.0,63,0.00,,---,0.08,VWS V14.01,2013-11-19 01:45:00,
2013-11-18 20:50:00,43.3,31.2,30.00,SW,233,1.0,7.0,62,0.00,,---,0.08,VWS V14.01,2013-11-19 01:50:00,
2013-11-18 20:55:00,43.3,31.2,30.00,West,261,0.0,6.0,62,0.00,,---,0.08,VWS V14.01,2013-11-19 01:55:00,
2013-11-18 21:00:00,43.2,31.5,30.00,West,272,3.0,4.0,63,0.00,,---,0.08,VWS V14.01,2013-11-19 02:00:00,
2013-11-18 21:05:00,43.2,31.5,30.00,WNW,294,8.0,12.0,63,0.00,,---,0.08,VWS V14.01,2013-11-19 02:05:00,
2013-11-18 21:10:00,43.1,31.4,30.01,WSW,243,0.0,10.0,63,0.00,,---,0.08,VWS V14.01,2013-11-19 02:10:00,
2013-11-18 21:15:00,43.0,31.3,30.01,NW,310,0.0,7.0,63,0.00,,---,0.08,VWS V14.01,2013-11-19 02:15:00,
2013-11-18 21:20:00,42.9,31.2,30.01,SSW,200,0.0,6.0,63,0.00,,---,0.08,VWS V14.01,2013-11-19 02:20:00,
2013-11-18 21:25:00,42.6,30.9,30.02,West,281,6.0,7.0,63,0.00,,---,0.08,VWS V14.01,2013-11-19 02:25:00,
2013-11-18 21:30:00,42.5,30.8,30.02,WNW,290,5.0,6.0,63,0.00,,---,0.08,VWS V14.01,2013-11-19 02:30:00,
2013-11-18 21:35:00,42.4,31.1,30.03,West,275,4.0,10.0,64,0.00,,---,0.08,VWS V14.01,2013-11-19 02:35:00,
2013-11-18 21:40:00,42.2,30.5,30.03,WNW,297,3.0,9.0,63,0.00,,---,0.08,VWS V14.01,2013-11-19 02:40:00,
2013-11-18 21:45:00,42.0,29.9,30.03,WSW,251,3.0,7.0,62,0.00,,---,0.08,VWS V14.01,2013-11-19 02:45:00,
2013-11-18 21:50:00,41.8,29.8,30.03,WNW,297,0.0,4.0,62,0.00,,---,0.08,VWS V14.01,2013-11-19 02:50:00,
2013-11-18 21:55:00,41.6,30.0,30.03,SSW,192,12.0,12.0,63,0.00,,---,0.08,VWS V14.01,2013-11-19 02:55:00,
2013-11-18 22:00:00,41.4,29.8,30.03,WNW,286,0.0,10.0,63,0.00,,---,0.08,VWS V14.01,2013-11-19 03:00:00,
2013-11-18 22:05:00,41.3,29.7,30.03,West,259,5.0,12.0,63,0.00,,---,0.08,VWS V14.01,2013-11-19 03:05:00,
2013-11-18 22:10:00,41.2,29.6,30.04,WNW,300,7.0,16.0,63,0.00,,---,0.08,VWS V14.01,2013-11-19 03:10:00,
2013-11-18 22:15:00,41.0,29.4,30.04,SSW,200,0.0,4.0,63,0.00,,---,0.08,VWS V14.01,2013-11-19 03:15:00,
2013-11-18 22:20:00,40.8,28.4,30.04,West,264,6.0,11.0,61,0.00,,---,0.08,VWS V14.01,2013-11-19 03:20:00,
2013-11-18 22:25:00,40.6,27.8,30.05,SW,215,6.0,6.0,60,0.00,,---,0.08,VWS V14.01,2013-11-19 03:25:00,
2013-11-18 22:30:00,40.4,28.0,30.04,WNW,294,6.0,10.0,61,0.00,,---,0.08,VWS V14.01,2013-11-19 03:30:00,
2013-11-18 22:35:00,40.3,27.9,30.05,WSW,245,3.0,9.0,61,0.00,,---,0.08,VWS V14.01,2013-11-19 03:35:00,
2013-11-18 22:40:00,40.2,27.8,30.05,WSW,250,2.0,4.0,61,0.00,,---,0.08,VWS V14.01,2013-11-19 03:40:00,
2013-11-18 22:45:00,40.1,27.8,30.05,WSW,252,0.0,3.0,61,0.00,,---,0.08,VWS V14.01,2013-11-19 03:45:00,
2013-11-18 22:50:00,40.0,28.0,30.05,West,264,5.0,8.0,62,0.00,,---,0.08,VWS V14.01,2013-11-19 03:50:00,
2013-11-18 22:55:00,40.0,28.0,30.05,SW,226,0.0,9.0,62,0.00,,---,0.08,VWS V14.01,2013-11-19 03:55:00,
2013-11-18 23:00:00,39.8,28.2,30.05,NW,307,6.0,8.0,63,0.00,,---,0.08,VWS V14.01,2013-11-19 04:00:00,
2013-11-18 23:05:00,39.8,28.6,30.06,WSW,252,1.0,4.0,64,0.00,,---,0.08,VWS V14.01,2013-11-19 04:05:00,
2013-11-18 23:07:00,39.7,28.5,30.05,West,273,0.0,4.0,64,0.00,,---,0.08,VWS V14.01,2013-11-19 04:07:00,
2013-11-18 23:12:00,39.7,28.5,30.06,NW,304,0.0,3.0,64,0.00,,---,0.08,VWS V14.01,2013-11-19 04:12:00,
2013-11-18 23:17:00,39.7,28.5,30.05,West,267,3.0,4.0,64,0.00,,---,0.08,VWS V14.01,2013-11-19 04:17:00,
2013-11-18 23:22:00,39.6,28.8,30.06,NW,309,3.0,4.0,65,0.00,,---,0.08,VWS V14.01,2013-11-19 04:22:00,
2013-11-18 23:27:00,39.6,28.8,30.06,NW,309,0.0,1.0,65,0.00,,---,0.08,VWS V14.01,2013-11-19 04:27:00,
2013-11-18 23:32:00,39.5,28.7,30.06,NW,309,0.0,1.0,65,0.00,,---,0.08,VWS V14.01,2013-11-19 04:32:00,
2013-11-18 23:37:00,39.5,29.1,30.06,NW,309,0.0,3.0,66,0.00,,---,0.08,VWS V14.01,2013-11-19 04:37:00,
2013-11-18 23:42:00,39.4,29.0,30.06,West,277,3.0,4.0,66,0.00,,---,0.08,VWS V14.01,2013-11-19 04:42:00,
2013-11-18 23:47:00,39.4,29.0,30.07,WNW,295,0.0,2.0,66,0.00,,---,0.08,VWS V14.01,2013-11-19 04:47:00,
2013-11-18 23:52:00,39.3,28.9,30.07,WSW,250,0.0,5.0,66,0.00,,---,0.08,VWS V14.01,2013-11-19 04:52:00,
2013-11-18 23:57:00,39.3,29.3,30.07,NW,317,0.0,7.0,67,0.00,,---,0.08,VWS V14.01,2013-11-19 04:57:00,